sat.trackr.live / text

‹ back to catalog

STARLINK-5128

NORAD 53998 · 2022-125AL

PAYLOAD ACTIVE UNKNOWN

§ Identity

Operator
Country
US
Launch date
2022-10-05
Launch site
AFWTR
Launch vehicle
Mass (kg)
RCS (m²)

Purposes: comms

External: N2YO · Heavens-Above · Gunter

§ Orbital elements

Epoch: 2026-09-20T22:00:03.000096Z

Period
94.44 min
Inclination
53.1611°
Eccentricity
0.0002063
Mean motion
15.24814692 rev/d
Perigee alt
489.9 km
Apogee alt
492.8 km
Semi-major
6,869.5 km
B*
3.0246e-3
RAAN
56.1587°
Arg perigee
71.2298°
Mean anomaly
82.8294°
Rev number
575

§ Raw data

STARLINK-51281 53998U 22125AL  26263.91670139  .00076493  00000+0  30246-2 0  99962 53998  53.1611  56.1587 0002063  71.2298  82.8294 15.24814692  5757

JSON: /api/v1/satellites/53998 · /tle

For live sub-satellite position, see the globe view (requires WebGL).

§ Visibility from observer

Set your observer location to see the next 7 days of passes ≥ 10°. The values pass through the URL so the page stays shareable.

No JS? Fill the form by hand. The geolocation button needs JavaScript.